Location: Zagreb
(45.8000°N, 16.0000°E)
Time: 01:51:10
(UTC+01:00)

Courier 1B - Pass Details

Date: 05 October 2020
Orbit: 963 x 1209 km, 28.3° (Epoch: 25 October)

Event Time Altitude Azimuth Distance (km) Brightness Sun altitude
Rises 20:25:26 0° 213° (SSW) 4,033 11.0 -21.2°
Reaches altitude 10° 20:29:50 10° 191° (S) 3,107 10.1 -21.9°
Enters shadow 20:33:19 14° 163° (SSE) 2,813 9.6 -22.5°
